JAF060P EBBR-EHAM

Flight info

Callsign JAF060P
Flight time 0h 25m
Altitude 16000
Route HELEN
Aircraft A320/M-SDE3FGHIRWY/LB1

Departure

Time 2026-05-07 15:30
Airport Brussels Airport (EBBR)

Arrival

Time 2026-05-07 15:56
Airport Amsterdam Airport Schiphol (EHAM)
Time Latitude Longitude Altitude Speed Heading
2026-05-07 15:16 50.90464 4.48787 120 ft 0 kts 155°
2026-05-07 15:16 50.90451 4.48729 119 ft 0 kts 155°
2026-05-07 15:23 50.90465 4.48719 117 ft 4 kts 149°
2026-05-07 15:24 50.90486 4.48694 116 ft 4 kts 134°
2026-05-07 15:24 50.90502 4.48661 118 ft 4 kts 114°
2026-05-07 15:24 50.90510 4.48621 117 ft 4 kts 89°
2026-05-07 15:24 50.90506 4.48585 116 ft 1 kts 64°
2026-05-07 15:26 50.90511 4.48595 115 ft 2 kts 46°
2026-05-07 15:27 50.90544 4.48604 115 ft 8 kts 354°
2026-05-07 15:27 50.90607 4.48643 113 ft 13 kts 60°
2026-05-07 15:27 50.90646 4.48800 112 ft 17 kts 66°
2026-05-07 15:27 50.90699 4.48989 113 ft 21 kts 68°
2026-05-07 15:28 50.90762 4.49208 115 ft 23 kts 65°
2026-05-07 15:28 50.90834 4.49453 112 ft 26 kts 65°
2026-05-07 15:28 50.90905 4.49655 111 ft 12 kts 31°
2026-05-07 15:28 50.90962 4.49657 107 ft 9 kts 320°
2026-05-07 15:29 50.90983 4.49566 111 ft 9 kts 273°
2026-05-07 15:29 50.90993 4.49471 113 ft 9 kts 294°
2026-05-07 15:29 50.90996 4.49390 114 ft 0 kts 246°
2026-05-07 15:29 50.90992 4.49379 113 ft 10 kts 246°
2026-05-07 15:30 50.90875 4.48965 114 ft 79 kts 245°
2026-05-07 15:30 50.90553 4.47854 120 ft 140 kts 245°
2026-05-07 15:30 50.90108 4.46395 579 ft 147 kts 246°
2026-05-07 15:30 50.89759 4.44854 1226 ft 150 kts 258°
2026-05-07 15:31 50.89643 4.43163 1703 ft 164 kts 270°
2026-05-07 15:31 50.89795 4.41254 2055 ft 187 kts 285°
2026-05-07 15:31 50.90328 4.39241 2429 ft 212 kts 302°
2026-05-07 15:31 50.91330 4.37367 2907 ft 236 kts 320°
2026-05-07 15:32 50.92800 4.35959 3512 ft 256 kts 334°
2026-05-07 15:32 50.94308 4.34401 4452 ft 264 kts 318°
2026-05-07 15:32 50.95518 4.32221 5478 ft 268 kts 308°
2026-05-07 15:32 50.96686 4.29850 6540 ft 271 kts 307°
2026-05-07 15:33 50.97972 4.27628 7485 ft 276 kts 314°
2026-05-07 15:33 50.99327 4.25499 8429 ft 279 kts 314°
2026-05-07 15:33 51.00715 4.23314 9363 ft 284 kts 314°
2026-05-07 15:33 51.02129 4.21081 10250 ft 290 kts 313°
2026-05-07 15:34 51.03613 4.18730 10581 ft 314 kts 313°
2026-05-07 15:34 51.05216 4.16182 10869 ft 336 kts 314°
2026-05-07 15:34 51.06901 4.13504 11446 ft 346 kts 314°
2026-05-07 15:34 51.08621 4.10775 12207 ft 351 kts 314°
2026-05-07 15:35 51.10355 4.08024 12974 ft 355 kts 314°
2026-05-07 15:35 51.12116 4.05228 13729 ft 359 kts 314°
2026-05-07 15:35 51.13886 4.02410 13991 ft 360 kts 314°
2026-05-07 15:35 51.15672 3.99560 14062 ft 374 kts 314°
2026-05-07 15:36 51.17564 3.96536 14071 ft 395 kts 314°
2026-05-07 15:36 51.19523 3.93409 14063 ft 401 kts 315°
2026-05-07 15:36 51.21701 3.90605 14060 ft 403 kts 326°
2026-05-07 15:36 51.24184 3.88531 14060 ft 404 kts 338°
2026-05-07 15:37 51.26882 3.87260 14063 ft 405 kts 348°
2026-05-07 15:37 51.29688 3.86829 14062 ft 406 kts 358°
2026-05-07 15:37 51.32514 3.86779 14069 ft 406 kts 359°
2026-05-07 15:37 51.35340 3.86720 14066 ft 406 kts 358°
2026-05-07 15:38 51.38167 3.86654 14067 ft 406 kts 358°
2026-05-07 15:38 51.40996 3.86583 14068 ft 406 kts 358°
2026-05-07 15:38 51.43823 3.86508 14075 ft 407 kts 358°
2026-05-07 15:38 51.46652 3.86432 14077 ft 407 kts 358°
2026-05-07 15:39 51.49485 3.86357 14077 ft 407 kts 358°
2026-05-07 15:39 51.52322 3.86285 14080 ft 407 kts 358°
2026-05-07 15:39 51.55149 3.86216 14082 ft 407 kts 358°
2026-05-07 15:39 51.57985 3.86149 14080 ft 404 kts 358°
2026-05-07 15:40 51.60718 3.86100 14073 ft 382 kts 358°
2026-05-07 15:40 51.63362 3.86045 14082 ft 394 kts 358°
2026-05-07 15:40 51.66136 3.85975 14080 ft 403 kts 358°
2026-05-07 15:40 51.68896 3.86042 13841 ft 389 kts
2026-05-07 15:41 51.71493 3.86923 13591 ft 375 kts 17°
2026-05-07 15:41 51.73849 3.88594 13089 ft 368 kts 30°
2026-05-07 15:41 51.75916 3.91002 12488 ft 365 kts 41°
2026-05-07 15:41 51.77796 3.93735 11851 ft 362 kts 42°
2026-05-07 15:42 51.79664 3.96451 11225 ft 360 kts 42°
2026-05-07 15:42 51.81527 3.99149 10774 ft 354 kts 41°
2026-05-07 15:42 51.83324 4.01743 10650 ft 339 kts 41°
2026-05-07 15:42 51.85049 4.04233 10524 ft 325 kts 41°
2026-05-07 15:43 51.86704 4.06627 10401 ft 313 kts 42°
2026-05-07 15:43 51.88299 4.08940 10271 ft 303 kts 42°
2026-05-07 15:43 51.89846 4.11187 10128 ft 295 kts 42°
2026-05-07 15:43 51.91382 4.13419 10060 ft 296 kts 41°
2026-05-07 15:44 51.92942 4.15632 9592 ft 301 kts 41°
2026-05-07 15:44 51.94523 4.17809 9317 ft 296 kts 40°
2026-05-07 15:44 51.96095 4.19953 8935 ft 295 kts 40°
2026-05-07 15:44 51.97640 4.22062 8581 ft 293 kts 40°
2026-05-07 15:45 51.99213 4.24219 8241 ft 291 kts 41°
2026-05-07 15:45 52.00733 4.26314 7914 ft 289 kts 41°
2026-05-07 15:45 52.02416 4.28086 7647 ft 282 kts 20°
2026-05-07 15:45 52.04262 4.28449 7487 ft 262 kts 351°
2026-05-07 15:46 52.07578 4.27073 7210 ft 233 kts 342°
2026-05-07 15:46 52.09111 4.26335 7031 ft 228 kts 342°
2026-05-07 15:46 52.10608 4.25608 6789 ft 227 kts 342°
2026-05-07 15:47 52.12122 4.24871 6522 ft 226 kts 342°
2026-05-07 15:47 52.13629 4.24133 6240 ft 226 kts 342°
2026-05-07 15:47 52.15128 4.23396 5979 ft 224 kts 342°
2026-05-07 15:47 52.16614 4.22661 5719 ft 223 kts 342°
2026-05-07 15:48 52.18092 4.21923 5461 ft 221 kts 342°
2026-05-07 15:48 52.19554 4.21189 5212 ft 219 kts 342°
2026-05-07 15:48 52.21037 4.20729 4959 ft 216 kts
2026-05-07 15:48 52.22401 4.21578 4694 ft 211 kts 41°
2026-05-07 15:49 52.23190 4.23531 4400 ft 208 kts 77°
2026-05-07 15:49 52.23196 4.25865 4094 ft 207 kts 99°
2026-05-07 15:49 52.22930 4.28099 3822 ft 207 kts 102°
2026-05-07 15:49 52.22615 4.30381 3554 ft 206 kts 102°
2026-05-07 15:50 52.22289 4.32650 3280 ft 205 kts 102°
2026-05-07 15:50 52.21959 4.34910 3003 ft 204 kts 103°
2026-05-07 15:50 52.21628 4.37150 2774 ft 201 kts 103°
2026-05-07 15:50 52.21306 4.39310 2646 ft 192 kts 102°
2026-05-07 15:51 52.20992 4.41386 2519 ft 186 kts 103°
2026-05-07 15:51 52.20683 4.43407 2316 ft 183 kts 103°
2026-05-07 15:51 52.20377 4.45389 2193 ft 176 kts 103°
2026-05-07 15:51 52.20083 4.47259 2113 ft 167 kts 102°
2026-05-07 15:52 52.19875 4.49142 2034 ft 169 kts 88°
2026-05-07 15:52 52.20142 4.50994 2009 ft 168 kts 62°
2026-05-07 15:52 52.20755 4.52621 2004 ft 169 kts 57°
2026-05-07 15:52 52.21370 4.54204 2000 ft 162 kts 57°
2026-05-07 15:53 52.21964 4.55734 2010 ft 159 kts 57°
2026-05-07 15:53 52.22555 4.57261 2024 ft 159 kts 57°
2026-05-07 15:53 52.23144 4.58781 2012 ft 159 kts 57°
2026-05-07 15:53 52.23724 4.60281 1898 ft 158 kts 57°
2026-05-07 15:54 52.24310 4.61794 1725 ft 157 kts 57°
2026-05-07 15:54 52.24892 4.63301 1514 ft 157 kts 56°
2026-05-07 15:54 52.25472 4.64802 1312 ft 156 kts 56°
2026-05-07 15:54 52.26037 4.66268 1115 ft 144 kts 55°
2026-05-07 15:55 52.26553 4.67606 912 ft 135 kts 54°
2026-05-07 15:55 52.27042 4.68873 734 ft 130 kts 56°
2026-05-07 15:55 52.27524 4.70125 556 ft 129 kts 56°
2026-05-07 15:55 52.28001 4.71364 403 ft 128 kts 57°
2026-05-07 15:56 52.28471 4.72596 193 ft 127 kts 57°
2026-05-07 15:56 52.28937 4.73806 30 ft 126 kts 57°
2026-05-07 15:56 52.29324 4.74789 -1 ft 48 kts 58°
2026-05-07 15:56 52.29484 4.75213 -2 ft 33 kts 58°
2026-05-07 15:57 52.29594 4.75360 -1 ft 21 kts
2026-05-07 15:57 52.29703 4.75293 -1 ft 0 kts 347°
2026-05-07 15:58 52.29706 4.75290 -1 ft 2 kts 339°
2026-05-07 15:58 52.29715 4.75285 -1 ft 0 kts 344°
2026-05-07 15:58 52.29722 4.75282 -1 ft 4 kts 344°
2026-05-07 15:58 52.29793 4.75268 -1 ft 16 kts
2026-05-07 15:59 52.29875 4.75415 -1 ft 5 kts 38°
2026-05-07 15:59 52.29917 4.75410 -1 ft 8 kts 335°
2026-05-07 15:59 52.29936 4.75393 -1 ft 0 kts 317°
2026-05-07 15:59 52.29938 4.75374 -1 ft 1 kts 266°
2026-05-07 16:00 52.29928 4.75353 -1 ft 4 kts 237°
2026-05-07 16:00 52.29921 4.75334 -1 ft 0 kts 238°